This demonstration page uses our WeatherBlox Daily Observations layout. Learn more.

Left ArrowRight Arrow

44.89941, -97.11507

Hourly Observations for January 6, 2016

Temp ( °F °C ) Dew Point ( °F °C ) Humidity (%) Winds ( mph kmh ) Pressure ( in mb ) Visibility ( mi km ) Precip ( " mm )
12:53 am 00:53 Clear with Mist and Fog 21 -6.1 18 -7.8 88 88 SSE 9 15 29.98 1015 6 10 0.00 0.00
1:53 am 01:53 Clear with Mist and Fog 22 -5.6 19 -7.2 89 89 SSE 7 11 29.97 1015 6 10 0.00 0.00
2:53 am 02:53 Clear with Mist and Fog 23 -5 19 -7.2 85 85 SSE 10 17 29.97 1015 6 10 0.00 0.00
3:53 am 03:53 Clear with Mist and Fog 22 -5.6 20 -6.7 92 92 SSE 9 15 29.96 1015 6 10 0.00 0.00
4:53 am 04:53 Clear with Mist and Fog 23 -5 20 -6.7 88 88 S 7 11 29.96 1015 6 10 0.00 0.00
5:53 am 05:53 Clear with Mist and Fog 23 -5 19 -7.2 85 85 SSE 6 9 29.96 1015 6 10 0.00 0.00
6:53 am 06:53 Clear with Mist and Fog 24 -4.4 21 -6.1 88 88 SSE 9 15 29.97 1015 6 10 0.00 0.00
7:53 am 07:53 Clear with Mist and Fog 23 -5 21 -6.1 92 92 SSE 6 9 29.97 1015 5 8 0.00 0.00
8:31 am 08:31 Partly Cloudy with Mist and Fog 23 -5 21 -6.1 92 92 SSE 3 6 30.03 1017 4 6 0.00 0.00
8:53 am 08:53 Mostly Cloudy with Mist and Fog 24 -4.4 22 -5.6 91 91 SE 3 6 29.98 1015 4 6 0.00 0.00
9:53 am 09:53 Cloudy with Mist and Fog 27 -2.8 25 -3.9 92 92 SSE 6 9 29.99 1016 4 6 0.00 0.00
10:31 am 10:31 undefined 32 0 26 -3.3 79 79 undefined N/A 30.00 1016 N/A 0.00 0.00
11:53 am 11:53 Partly Cloudy with Mist and Fog 30 -1.1 27 -2.8 88 88 S 6 9 29.98 1015 4 6 0.00 0.00
12:05 pm 12:05 Cloudy with Mist and Fog 30 -1.1 27 -2.8 88 88 S 6 9 30.00 1016 3 5 0.00 0.00
12:23 pm 12:23 Cloudy with Mist and Fog 31 -0.6 28 -2.2 89 89 SSE 6 9 29.97 1015 3 5 0.00 0.00
12:53 pm 12:53 Cloudy with Mist and Fog 32 0 29 -1.7 88 88 SE 6 9 29.95 1014 3 5 0.00 0.00
1:37 pm 13:37 Cloudy with Mist and Fog 32 0 30 -1.1 92 92 SE 5 7 29.94 1014 3 4 0.00 0.00
1:53 pm 13:53 Cloudy with Mist and Fog 32 0 30 -1.1 92 92 SE 7 11 29.93 1014 3 4 0.00 0.00
2:05 pm 14:05 Cloudy with Mist and Fog 32 0 30 -1.1 92 92 SE 6 9 29.94 1014 2 2 0.00 0.00
2:20 pm 14:20 Cloudy with Mist and Fog 32 0 30 -1.1 92 92 SE 8 13 29.94 1014 1 2 0.00 0.00
2:42 pm 14:42 Cloudy with Mist and Fog 32 0 30 -1.1 92 92 SSE 8 13 29.94 1014 1 1 0.00 0.00
2:53 pm 14:53 Cloudy with Fog 32 0 30 -1.1 92 92 SSE 8 13 29.92 1013 0 0 0.00 0.00
3:53 pm 15:53 Mostly Cloudy with Fog 33 0.6 31 -0.6 92 92 SSE 7 11 29.92 1013 0 0 0.00 0.00
4:53 pm 16:53 Mostly Cloudy with Fog 32 0 31 -0.6 96 96 SSE 7 11 29.93 1013 0 0 0.00 0.00
5:19 pm 17:19 Mostly Cloudy with Fog 32 0 31 -0.6 96 96 SSE 9 15 29.94 1014 1 1 0.00 0.00
5:53 pm 17:53 Mostly Cloudy with Mist and Fog 32 0 31 -0.6 96 96 SSE 8 13 29.94 1014 1 1 0.00 0.00
6:37 pm 18:37 Cloudy with Mist and Fog 32 0 30 -1.1 92 92 SSE 7 11 29.97 1015 2 2 0.00 0.00
6:53 pm 18:53 Cloudy with Mist and Fog 32 0 30 -1.1 92 92 SSE 7 11 29.96 1014 1 2 0.00 0.00
7:04 pm 19:04 Cloudy with Mist and Fog 32 0 30 -1.1 92 92 SSE 8 13 29.97 1015 2 2 0.00 0.00
7:53 pm 19:53 Cloudy with Mist and Fog 32 0 30 -1.1 92 92 SSE 6 9 29.95 1014 2 3 0.00 0.00
8:53 pm 20:53 Cloudy with Mist and Fog 32 0 30 -1.1 92 92 SSE 7 11 29.95 1014 2 3 0.00 0.00
9:53 pm 21:53 Cloudy with Mist and Fog 32 0 30 -1.1 92 92 SSE 5 7 29.95 1014 2 2 0.00 0.00
10:48 pm 22:48 Cloudy with Mist and Fog 32 0 30 -1 93 93 SSE 3 6 29.97 1015 1 2 0.00 0.00
10:53 pm 22:53 Cloudy with Mist and Fog 32 0 31 -0.6 96 96 SE 5 7 29.94 1014 1 2 0.00 0.00
11:00 pm 23:00 Cloudy with Mist and Fog 32 0 30 -1.1 92 92 SE 5 7 29.97 1015 1 1 0.00 0.00
11:53 pm 23:53 Cloudy with Mist and Fog 32 0 31 -0.6 96 96 SE 5 7 29.93 1014 2 2 0.00 0.00

Powered by AerisWeather